Vorticity
9 7 5 6 7 7 7 8 7 7 7 7 7 9 9 8 8 8 5 6 6 7
10 10 11 9 9 8 8 8 9 9 10 8 7 6 7 7 8 10 10 5 4 9
11 11 11 12 11 12 11 11 12 11 11 13 12 12 12 11 10 10 10 12 15 18
10 13 11 15 17 20 22 20 25 17 13 18 20 18 16 14 14 11 9 8 10 11
8 10 9 8 1 9 16 11 9 5 7 7 5 4 12 11 11 13 14 14 14 9
16 17 13 10 9 8 22 1 7 5 5 5 13 8 3 10 2 11 13 16 8 10
9 8 3 -1 2 2 7 9 15 17 16 14 12 15 19 13 7 7 6 8 6 12
19 12 12 17 15 10 17 12 9 14 9 14 6 9 10 10 6 7 12 8 4 7
31 19 7 14 16 14 17 15 17 14 12 13 16 6 8 12 7 11 7 6 3 6
23 19 19 18 16 13 14 15 11 13 11 9 9 16 13 17 13 17 18 12 13 13
11 9 8 10 10 10 13 15 14 14 14 15 14 14 16 16 14 14 14 14 14 15
6 9 16 16 12 10 11 11 10 10 10 7 6 7 6 5 5 5 6 9 9 10
-4 6 9 8 11 11 11 5 2 10 10 9 11 13 13 15 17 18 20 21 19 17
2 -8 22 14 13 12 13 21 21 17 17 18 17 15 15 14 13 12 12 12 12 11
Height
5608 5608 5610 5613 5615 5618 5621 5624 5626 5628 5631 5633 5636 5639 5642 5644 5648 5652 5655 5659 5662 5665
5589 5591 5593 5596 5599 5602 5604 5607 5609 5611 5614 5616 5618 5621 5625 5628 5630 5633 5636 5640 5643 5646
5572 5575 5577 5580 5582 5585 5587 5589 5591 5593 5596 5599 5601 5603 5606 5609 5612 5615 5618 5621 5624 5627
5557 5559 5562 5565 5567 5568 5569 5571 5574 5576 5578 5581 5583 5586 5588 5591 5594 5597 5599 5602 5605 5608
5542 5544 5547 5550 5551 5553 5556 5558 5558 5560 5562 5564 5567 5569 5572 5575 5577 5581 5582 5584 5587 5590
5527 5530 5532 5535 5537 5537 5539 5541 5542 5544 5547 5549 5550 5553 5557 5560 5562 5564 5566 5568 5569 5572
5514 5516 5518 5519 5521 5523 5525 5526 5528 5530 5532 5533 5535 5538 5541 5544 5545 5547 5550 5551 5553 5555
5502 5503 5503 5504 5507 5509 5511 5513 5515 5517 5519 5520 5521 5524 5526 5529 5531 5533 5534 5536 5537 5541
5488 5489 5490 5492 5493 5494 5497 5499 5502 5503 5504 5505 5506 5508 5510 5514 5515 5516 5517 5519 5520 5524
5475 5476 5478 5479 5480 5481 5483 5485 5486 5487 5488 5489 5491 5493 5494 5497 5499 5499 5500 5501 5503 5504
5466 5466 5467 5468 5469 5470 5471 5472 5472 5473 5474 5475 5475 5476 5478 5480 5482 5481 5482 5483 5484 5485
5457 5458 5459 5459 5460 5460 5460 5460 5460 5460 5460 5461 5461 5462 5463 5464 5466 5466 5465 5466 5465 5466
5449 5449 5449 5449 5448 5448 5449 5449 5449 5448 5448 5447 5447 5447 5448 5448 5449 5449 5449 5448 5448 5449
5440 5439 5438 5438 5437 5437 5437 5436 5436 5435 5435 5434 5434 5433 5433 5432 5433 5432 5432 5431 5430 5430